Weather History for KGEZ - April, 2014

Change the Weather History Date:

Wednesday, April 9, 2014

  Actual Average Record
Temperature  
Mean Temperature 51 °F 51 °F  
Max Temperature 63 °F 61 °F 84 °F (2001)
Min Temperature 38 °F 40 °F 26 °F (2007)
Degree Days  
Heating Degree Days 14 15  
Month to date heating degree days 122 144  
Since 1 July heating degree days 5438 5027  
Cooling Degree Days 0 0  
Month to date cooling degree days 0 0  
Year to date cooling degree days 0 1  
Moisture  
Dew Point 36 °F    
Average Humidity 59    
Maximum Humidity 82    
Minimum Humidity 36    
Precipitation  
Precipitation 0.00 in 0.13 in 0.58 in (2011)
Month to date precipitation 3.51 1.09  
Year to date precipitation 9.45 9.27  
Sea Level Pressure  
Sea Level Pressure 30.00 in    
Wind  
Wind Speed 7 mph (West)    
Max Wind Speed 16 mph    
Max Gust Speed 24 mph    
Visibility 10 miles    
Events      
T = Trace of Precipitation, MM = Missing Value Source: NWS Daily Summary

Daily Weather History Graph

Daily Weather History Graph

Search for Another Location

Airport or City:

Trip Planner

Search our weather history database for the weather conditions in past years. The results will help you decide how hot, cold, wet, or windy it might be!

Date:

Astronomy

Apr. 09, 2014 Rise Set
Actual Time 7:14 AM EDT 8:15 PM EDT
Civil Twilight 6:47 AM EDT 8:42 PM EDT
Nautical Twilight 6:14 AM EDT 9:15 PM EDT
Astronomical Twilight 5:40 AM EDT 9:49 PM EDT
Moon 3:03 PM EDT (4/9) 4:02 AM EDT (4/9)
Length of Visible Light 13h 55m
Length of Day
13h 00m
Waxing Gibbous, 71% of the Moon is Illuminated
Apr 9
Waxing Gibbous
Apr 15
Full
Apr 22
Last Quarter
Apr 29
New
May 6
First Quarter

Hourly Weather History & Observations

Time (EDT) Temp. Windchill Dew Point Humidity Pressure Visibility Wind Dir Wind Speed Gust Speed Precip Events Conditions
12:53 AM 45.0 °F 41.8 °F 37.0 °F 74% 29.89 in 10.0 mi WNW 5.8 mph - N/A   Clear
1:53 AM 44.1 °F 39.5 °F 37.0 °F 76% 29.90 in 10.0 mi NW 8.1 mph - N/A   Clear
2:53 AM 44.1 °F 40.8 °F 36.0 °F 73% 29.91 in 10.0 mi WNW 5.8 mph - N/A   Clear
3:53 AM 39.9 °F 35.8 °F 34.0 °F 79% 29.92 in 10.0 mi NW 5.8 mph - N/A   Clear
4:53 AM 39.9 °F 34.5 °F 34.0 °F 79% 29.93 in 10.0 mi NW 8.1 mph - N/A   Clear
5:53 AM 39.9 °F 36.7 °F 33.1 °F 77% 29.95 in 10.0 mi NW 4.6 mph - N/A   Clear
6:53 AM 37.9 °F 34.4 °F 32.0 °F 79% 29.98 in 10.0 mi NNW 4.6 mph - N/A   Clear
7:53 AM 39.0 °F 35.7 °F 32.0 °F 76% 30.00 in 10.0 mi NNW 4.6 mph - N/A   Clear
8:53 AM 44.1 °F 40.1 °F 35.1 °F 71% 30.03 in 10.0 mi NNW 6.9 mph - N/A   Clear
9:53 AM 48.0 °F - 37.0 °F 66% 30.05 in 10.0 mi North 4.6 mph - N/A   Clear
10:53 AM 51.1 °F - 39.0 °F 63% 30.06 in 10.0 mi Calm Calm - N/A   Clear
11:53 AM 55.0 °F - 37.0 °F 51% 30.07 in 10.0 mi SSW 3.5 mph - N/A   Clear
12:53 PM 57.9 °F - 34.0 °F 41% 30.06 in 10.0 mi Variable 3.5 mph - N/A   Clear
1:53 PM 57.9 °F - 37.0 °F 46% 30.05 in 10.0 mi West 6.9 mph - N/A   Partly Cloudy
2:53 PM 61.0 °F - 37.9 °F 42% 30.04 in 10.0 mi West 10.4 mph 18.4 mph N/A   Clear
3:53 PM 63.0 °F - 35.1 °F 35% 30.02 in 10.0 mi West 9.2 mph 18.4 mph N/A   Partly Cloudy
4:53 PM 63.0 °F - 36.0 °F 37% 30.01 in 10.0 mi WNW 11.5 mph - N/A   Mostly Cloudy
5:53 PM 62.1 °F - 36.0 °F 38% 30.01 in 10.0 mi WSW 15.0 mph - N/A   Scattered Clouds
6:53 PM 60.1 °F - 35.1 °F 39% 30.01 in 10.0 mi WSW 13.8 mph - N/A   Partly Cloudy
7:53 PM 57.9 °F - 36.0 °F 44% 30.01 in 10.0 mi WSW 8.1 mph - N/A   Clear
8:53 PM 53.1 °F - 37.0 °F 55% 30.03 in 10.0 mi SW 5.8 mph - N/A   Clear
9:53 PM 53.1 °F - 36.0 °F 52% 30.03 in 10.0 mi SSW 6.9 mph - N/A   Clear
10:53 PM 51.1 °F - 36.0 °F 56% 30.03 in 10.0 mi SSW 9.2 mph - N/A   Clear
11:53 PM 51.1 °F - 35.1 °F 54% 30.02 in 10.0 mi South 9.2 mph - N/A   Clear